Location: Borowce
(50.8255°N, 19.6209°E)
Time: 08:03:32
(UTC+00:00)

Landsat 5 - Pass Details

Date: 19 May 2025
Orbit: 510 x 610 km, 98.1° (Epoch: 16 June)

Event Time Altitude Azimuth Distance (km) Brightness Sun altitude
Rises 21:52:21 0° 14° (NNE) 2,810 8.1 -18.5°
Reaches altitude 10° 21:54:30 10° 15° (NNE) 1,920 7.1 -18.6°
Maximum altitude 21:58:41 88° 105° (ESE) 604 3.4 -18.7°
Enters shadow 22:00:07 41° 194° (SSW) 874 3.9 -18.7°
